Hoquiam, WA
on Tuesday, January 29, 2013

Tuesday
Previous Day Next Day
Daily Summary
 ActualAverageRecord
Temperature
Mean Temperature °F 43°F  
Max Temperature 46°F 48°F 56°F (1960)
Min Temperature 44°F 38°F 17°F (1980)
Degree Days
Heating Degree Days 20 22  
Month to date heating degree days 649  
Cooling Degree Days 0 0  
Month to date cooling degree days 0  
Year to date cooling degree days 0  
Moisture
Dew Point 45°F   
Average Humidity 95    
Maximum Humidity 100    
Minimum Humidity 87    
Precipitation
Precipitation 0.30 in 0.29 in 2.92 in (2006)
Month to date precipitation 9.73  
Year to date precipitation 9.73  
Wind
Wind Speed 16 mph   
Max Wind Speed 23 mph   
Max Gust Speed 32 mph   
Visibility 5 miles   
Events Rain   

Key: T is trace of precipitation, MM is missing value
Source: NWS Daily Summary
Time(PST)TemperatureDew PointHumidity Pressure Visibility Wind DirectionWind SpeedGust SpeedPrecipitationEvents Conditions
12:02 AM 46.4°F 42.8°F 87% 30.16 in 10.0 miles West 18.4 mph 25.3 mph 0.00 in Rain Light Rain
12:53 AM 45.0°F 43.0°F 93% 30.17 in 4.0 miles West 19.6 mph - 0.02 in Rain Light Rain
1:15 AM 46.4°F 44.6°F 93% 30.17 in 6.0 miles West 20.7 mph 32.2 mph 0.01 in Rain Light Rain
1:32 AM 46.4°F 44.6°F 93% 30.17 in 5.0 miles West 21.9 mph - 0.01 in Rain Light Rain
1:53 AM 46.0°F 44.1°F 93% 30.19 in 6.0 miles West 20.7 mph - 0.02 in Rain Light Rain
2:53 AM 46.4°F 44.6°F 93% 30.19 in 5.0 miles West 23.0 mph 28.8 mph N/A Rain Light Rain
3:03 AM 46.4°F 44.6°F 93% 30.20 in 6.0 miles West 19.6 mph 27.6 mph 0.00 in Rain Light Rain
3:16 AM 46.4°F 44.6°F 93% 30.20 in 4.0 miles West 20.7 mph - 0.01 in   Overcast
3:41 AM 46.4°F 44.6°F 93% 30.20 in 4.0 miles West 16.1 mph 24.2 mph 0.01 in   Overcast
3:53 AM 46.0°F 44.1°F 93% 30.22 in 3.0 miles West 16.1 mph 24.2 mph 0.01 in   Overcast
4:40 AM 46.4°F 44.6°F 93% 30.22 in 2.5 miles West 19.6 mph 32.2 mph 0.01 in   Overcast
4:53 AM 46.0°F 44.1°F 93% 30.24 in 3.0 miles West 17.3 mph 25.3 mph 0.01 in Rain Light Rain
5:53 AM 46.0°F 44.1°F 93% 30.25 in 8.0 miles West 16.1 mph - 0.01 in   Overcast
6:53 AM 46.0°F 44.1°F 93% 30.27 in 9.0 miles West 15.0 mph - 0.00 in   Overcast
7:11 AM 46.4°F 44.6°F 93% 30.26 in 10.0 miles West 17.3 mph - N/A   Overcast
7:18 AM 46.4°F 44.6°F 93% 30.26 in 10.0 miles West 17.3 mph 23.0 mph N/A   Overcast
7:53 AM 46.0°F 44.1°F 93% 30.29 in 8.0 miles West 19.6 mph - N/A   Overcast
8:53 AM 46.0°F 44.1°F 93% 30.31 in 8.0 miles West 13.8 mph - N/A   Overcast
9:10 AM 46.4°F 44.6°F 93% 30.30 in 3.0 miles West 15.0 mph - N/A   Overcast
9:18 AM 46.4°F 44.6°F 93% 30.30 in 4.0 miles West 16.1 mph - N/A   Overcast
9:26 AM 46.4°F 44.6°F 93% 30.31 in 5.0 miles West 15.0 mph - N/A   Overcast
9:53 AM 46.0°F 45.0°F 96% 30.33 in 5.0 miles WSW 13.8 mph - N/A   Overcast
10:05 AM 46.4°F 44.6°F 93% 30.33 in 2.0 miles West 17.3 mph 21.9 mph 0.00 in Rain Light Rain
10:16 AM 46.4°F 44.6°F 93% 30.34 in 5.0 miles WSW 11.5 mph - 0.00 in   Overcast
10:53 AM 46.9°F 45.0°F 93% 30.35 in 6.0 miles West 15.0 mph - 0.00 in   Overcast
11:09 AM 46.4°F 44.6°F 93% 30.35 in 2.0 miles West 13.8 mph - N/A   Overcast
11:19 AM 46.4°F 44.6°F 93% 30.36 in 8.0 miles West 13.8 mph - N/A   Overcast
11:53 AM 46.9°F 45.0°F 93% 30.37 in 5.0 miles West 15.0 mph - 0.01 in   Overcast
12:21 PM 46.4°F 44.6°F 93% 30.36 in 7.0 miles West 12.7 mph - N/A   Overcast
12:31 PM 46.4°F 44.6°F 93% 30.36 in 10.0 miles West 12.7 mph - N/A   Overcast
12:47 PM 46.4°F 44.6°F 93% 30.36 in 2.0 miles WSW 13.8 mph - N/A   Overcast
12:53 PM 46.9°F 45.0°F 93% 30.37 in 1.5 miles WSW 11.5 mph - N/A   Overcast
1:05 PM 46.4°F 46.4°F 100% 30.36 in 2.0 miles WSW 12.7 mph - N/A   Overcast
1:20 PM 46.4°F 46.4°F 100% 30.36 in 6.0 miles WSW 11.5 mph - N/A   Overcast
1:53 PM 46.9°F 46.0°F 97% 30.38 in 4.0 miles WSW 11.5 mph - N/A   Overcast
2:01 PM 46.4°F 44.6°F 93% 30.37 in 6.0 miles WSW 13.8 mph - N/A   Overcast
2:17 PM 46.4°F 46.4°F 100% 30.37 in 2.5 miles WSW 11.5 mph - N/A   Overcast
2:30 PM 46.4°F 46.4°F 100% 30.37 in 1.8 miles WSW 11.5 mph - N/A   Overcast
2:43 PM 46.4°F 46.4°F 100% 30.38 in 1.5 miles WSW 12.7 mph - N/A   Overcast
2:53 PM 46.0°F 46.0°F 100% 30.39 in 1.5 miles WSW 10.4 mph - N/A   Overcast
3:16 PM 46.4°F 46.4°F 100% 30.38 in 2.5 miles WSW 13.8 mph - N/A   Overcast
3:22 PM 46.4°F 44.6°F 93% 30.38 in 3.0 miles WSW 12.7 mph - N/A   Overcast
3:35 PM 46.4°F 44.6°F 93% 30.39 in 2.5 miles West 16.1 mph - N/A   Overcast
3:51 PM 46.4°F 44.6°F 93% 30.40 in 1.5 miles WSW 13.8 mph 21.9 mph N/A   Overcast
3:53 PM 46.0°F 45.0°F 96% 30.40 in 1.5 miles WSW 13.8 mph 21.9 mph N/A   Overcast
4:11 PM 46.4°F 44.6°F 93% 30.39 in 2.5 miles WSW 12.7 mph - N/A   Overcast
4:24 PM 46.4°F 44.6°F 93% 30.39 in 4.0 miles WSW 11.5 mph - N/A   Overcast
4:53 PM 46.0°F 45.0°F 96% 30.41 in 8.0 miles WSW 11.5 mph - N/A   Overcast
5:09 PM 46.4°F 44.6°F 93% 30.40 in 10.0 miles WSW 10.4 mph - N/A   Overcast
5:34 PM 46.4°F 44.6°F 93% 30.40 in 8.0 miles WSW 11.5 mph - N/A   Overcast
5:49 PM 46.4°F 44.6°F 93% 30.41 in 10.0 miles WSW 11.5 mph - N/A   Overcast
5:53 PM 46.0°F 44.1°F 93% 30.41 in 10.0 miles WSW 11.5 mph - N/A   Overcast
6:53 PM 46.0°F 44.1°F 93% 30.42 in 10.0 miles SW 9.2 mph - N/A   Overcast
7:18 PM 44.6°F 42.8°F 93% 30.41 in 3.0 miles SSW 13.8 mph - 0.01 in   Overcast
7:26 PM 44.6°F 44.6°F 100% 30.41 in 2.5 miles SW 12.7 mph - 0.01 in Rain Light Rain
7:38 PM 44.6°F 44.6°F 100% 30.41 in 2.0 miles SW 9.2 mph - 0.02 in Rain Light Rain
7:53 PM 45.0°F 45.0°F 100% 30.42 in 2.5 miles SW 8.1 mph - 0.04 in Rain Light Rain
8:00 PM 44.6°F 44.6°F 100% 30.41 in 3.0 miles SW 6.9 mph - 0.01 in Rain Light Rain
8:27 PM 44.6°F 44.6°F 100% 30.40 in 2.5 miles SSW 4.6 mph - 0.03 in Rain Light Rain
8:53 PM 45.0°F 44.1°F 97% 30.40 in 2.5 miles South 5.8 mph - 0.06 in Rain Light Rain
9:02 PM 46.4°F 44.6°F 93% 30.37 in 3.0 miles South 10.4 mph - 0.01 in Rain Light Rain
9:53 PM 46.9°F 46.0°F 97% 30.37 in 4.0 miles SSW 17.3 mph - 0.04 in Rain Light Rain
10:11 PM 46.4°F 46.4°F 100% 30.35 in 5.0 miles SSW 18.4 mph - N/A   Overcast
10:53 PM 46.9°F 46.0°F 97% 30.37 in 2.5 miles SSW 17.3 mph - 0.02 in   Overcast
11:01 PM 46.4°F 46.4°F 100% 30.35 in 3.0 miles SSW 15.0 mph - 0.01 in Rain Light Rain
11:44 PM 46.4°F 46.4°F 100% 30.35 in 2.5 miles SW 16.1 mph - 0.05 in Rain Rain
11:53 PM 46.9°F 46.9°F 100% 30.37 in 4.0 miles SW 16.1 mph - 0.06 in Rain Light Rain
Moon Phase
Jan. 29 Feb. 03 Feb. 10 Feb. 17 Feb. 25
Sunrise:07:43 AM (PST) Moon Rise:08:32 PM (PST)1/29
Sunset:05:14 PM (PST) Moon Set:08:29 AM (PST)1/29

Copyright © 2014 The Weather Underground, Inc.